[Iaude] MPEC E86: 2024 EC2 [a=2.43,e=0.65,i=2.5,H=25.3]
    mpec at cfa.harvard.edu 
    mpec at cfa.harvard.edu
       
    Wed Mar  6 11:36:32 EST 2024
    
    
  
M.P.E.C. 2024-E86                                 Issued 2024 March 6, 16:34 UT
     The Minor Planet Electronic Circulars contain information on unusual
         minor planets, routine data on comets and natural satellites,
         and occasional editorial announcements.  They are published
    on behalf of Division F of the International Astronomical Union by the
          Minor Planet Center, Smithsonian Astrophysical Observatory,
                          Cambridge, MA 02138, U.S.A.
			  
             Prepared using the Tamkin Foundation Computer Network
                              MPC at CFA.HARVARD.EDU
            URL https://www.minorplanetcenter.net/    ISSN 1523-6714
                                    2024 EC2                                    
Observations:
     K24E02C  C2024 02 23.61839515 10 19.523+44 11 05.68         18.46GVEE086F51
     K24E02C  C2024 02 23.63062215 08 51.057+44 01 04.91         18.12GVEE086F51
     K24E02C  C2024 02 23.65174015 06 20.722+43 43 41.49         18.12GVEE086F52
     K24E02C  C2024 02 23.65628715 05 48.963+43 39 57.29         18.87GVEE086F52
     K24E02C  C2024 02 23.66537915 04 45.343+43 32 24.73         19.80GVEE086F52
     K24E02C  C2024 02 24.60833613 52 19.614+31 23 07.53         18.25GVEE086F51
     K24E02C  C2024 02 24.61846813 51 46.388+31 16 19.02         18.20GVEE086F51
     K24E02C  C2024 03 02.57559712 17 38.045+04 59 42.66         20.32GVEE086F51
     K24E02C*1C2024 03 05.37184312 09 58.032+02 40 21.07         20.43GVEE086G96
     K24E02C 1C2024 03 05.37706512 09 57.208+02 40 09.05         20.52GVEE086G96
     K24E02C 1C2024 03 05.38230112 09 56.300+02 39 57.31         21.07GVEE086G96
     K24E02C 1C2024 03 05.38753612 09 55.444+02 39 45.29         21.15GVEE086G96
     K24E02C mC2024 03 05.48129512 09 40.500+02 36 14.80         20.84GVEE086V06
     K24E02C mC2024 03 05.48293412 09 40.230+02 36 11.40         21.11GVEE086V06
     K24E02C mC2024 03 05.48375212 09 40.090+02 36 09.20         20.62GVEE086V06
     K24E02C KB2024 03 06.27183 12 08 09.684+02 08 47.87         20.7 RZEE086H36
     K24E02C KB2024 03 06.29404 12 08 06.473+02 08 04.02         20.9 RZEE086H36
     K24E02C KB2024 03 06.29421 12 08 06.509+02 08 01.93         20.8 GVEE086734
     K24E02C KB2024 03 06.32343 12 08 02.357+02 07 06.53         20.9 GVEE086734
Observer details:
734 Farpoint Observatory, Eskridge.  Observers D. Cromer, G. Hug, D. Goodin,
    R. Valentine.  Measurer G. Hug.  0.69-m f/3.54 reflector + CMO.
F51 Pan-STARRS 1, Haleakala.  Observers J. Herman, T. Lowe, P. Minguez, A.
    Schultz, I. Smith.  Measurers K. Chambers, T. de Boer, J. Fairlamb, H.
    Gao, M. Huber, C.-C. Lin, E. Magnier, Y. Ramanjooloo, R. Wainscoat, R.
    Weryk.  1.8-m Ritchey-Chretien + CCD.
F52 Pan-STARRS 2, Haleakala.  Observers J. Herman, T. Lowe, P. Minguez, A.
    Schultz, I. Smith.  Measurers K. Chambers, T. de Boer, J. Fairlamb, H.
    Gao, M. Huber, C.-C. Lin, E. Magnier, Y. Ramanjooloo, R. Wainscoat, R.
    Weryk.  1.8-m Ritchey-Chretien + CCD.
G96 Mt. Lemmon Survey.  Observer G. J. Leonard.  Measurers T. Beuden, V. F.
    Carvajal, D. Fay, J. B. Fazekas, D. C. Fuls, A. R. Gibbs, A. D. Grauer, H.
    Groeller, J. K. Hogan, R. A. Kowalski, S. M. Larson, G. J. Leonard, D.
    Rankin, R. L. Seaman, F. C. Shelly, K. W. Wierzchos.  1.5-m reflector +
    10K CCD.
H36 Sandlot Observatory, Scranton.  Observer G. Hug.  0.56-m f/4.8 reflector +
    CMO.
V06 Catalina Sky Survey-Kuiper.  Observer J. K. Hogan.  Measurers T. Beuden,
    V. F. Carvajal, D. Fay, J. B. Fazekas, D. C. Fuls, A. R. Gibbs, A. D.
    Grauer, H. Groeller, J. K. Hogan, R. A. Kowalski, S. M. Larson, G. J.
    Leonard, D. Rankin, R. L. Seaman, F. C. Shelly, K. W. Wierzchos.  1.55-m
    reflector + 1K CCD.
Orbital elements:
2024 EC2                                                 Earth MOID = 0.0141 AU
Epoch 2024 Mar. 31.0 TT = JDT 2460400.5                 Veres                   
M  18.37963              (2000.0)            P               Q                  
n   0.25943907     Peri.  112.04832     -0.25819488     -0.96607812             
a   2.4347019      Node   352.90832     +0.86967755     -0.23001874             
e   0.6477349      Incl.    2.47686     +0.42070935     -0.11740715             
P   3.80           H   25.32          G   0.15           U   8                  
Residuals in seconds of arc
240223 F51  0.0   0.0     240302 F51  0.1+  0.1+    240305 V06  0.3-  0.1-
240223 F51 (1.9-  1.3-)   240305 G96  0.1-  0.1+    240306 H36  0.4-  0.8+
240223 F52 (1.1-  1.0-)   240305 G96  0.4+  0.1-    240306 H36  0.6-  0.1-
240223 F52 (2.0+  0.9+)   240305 G96  0.2-  0.0     240306 734 (0.1-  1.7-)
240223 F52 (2.4+  1.6+)   240305 G96  0.1-  0.2-    240306 734  0.7+  0.9-
240224 F51  0.0   0.0     240305 V06  0.3+  0.0
240224 F51  0.0   0.0     240305 V06  0.0   0.2+
Ephemeris:
2024 EC2                 a,e,i = 2.43, 0.65, 2                   q = 0.8577
Date    TT    R. A. (2000) Decl.     Delta      r    Elong.  Phase     V
2024 02 05    23 29 46.4 +08 42 42   0.1371  0.8894    42.4   131.6    26.6
...
2024 02 20    22 13 12.7 +31 42 05   0.02559 0.9700    43.0   136.0    23.6
...
2024 02 28    12 37 54.4 +11 20 09   0.04209 1.0274   151.0    27.9    19.7
...
2024 03 05    12 10 48.4 +02 55 42   0.08663 1.0749   162.9    15.8    21.0
2024 03 06    12 08 40.3 +02 18 43   0.09430 1.0832   164.2    14.4    21.2
2024 03 07    12 06 48.9 +01 47 29   0.1020  1.0915   165.5    13.1    21.3
...
2024 03 13    11 59 13.5 -00 08 12   0.1499  1.1427   172.7     6.4    22.0
...
2024 03 21    11 53 55.3 -01 16 18   0.2181  1.2140   177.7     1.9    22.7
...
2024 04 05    11 51 04.9 -02 09 18   0.3636  1.3526   163.2    12.3    24.5
M. P. C. Staff               (C) Copyright 2024 MPC           M.P.E.C. 2024-E86
    
    
More information about the Iaude
mailing list